Barter Island, AK

4:11 PM AKDT on October 19, 2017 (GMT -0800)
Barter Island LRRS

Weather History for PABA - August, 2013

Change the Weather History Date:

Thursday, August 15, 2013

  Actual Average Record
Temperature  
Mean Temperature 45 °F -  
Max Temperature 44 °F 42 °F 59 °F (1997)
Min Temperature 44 °F 34 °F 21 °F (2002)
Degree Days  
Heating Degree Days 20    
Moisture  
Dew Point 44 °F    
Average Humidity 95    
Maximum Humidity 100    
Minimum Humidity 89    
Precipitation  
Precipitation 0.06 in - - ()
Sea Level Pressure  
Sea Level Pressure 29.99 in    
Wind  
Wind Speed 11 mph (East)    
Max Wind Speed 21 mph    
Max Gust Speed -    
Visibility 9 miles    
Events Rain    
Averages and records for this station are not official NWS values.
T = Trace of Precipitation, MM = Missing Value Source: NWS Daily Summary

Daily Weather History Graph

Daily Weather History Graph

Search for Another Location

Airport or City:

Trip Planner

Search our weather history database for the weather conditions in past years. The results will help you decide how hot, cold, wet, or windy it might be!

Date:

Astronomy

Aug. 15, 2013 Rise Set
Actual Time 4:31 AM AKDT 10:41 PM AKDT
Civil Twilight 2:11 AM AKDT 1:02 AM AKDT
Nautical Twilight Sun does not rise Sun does not rise
Astronomical Twilight Sun does not rise Sun does not rise
Moon No Moon Rise No Moon Set
Length of Visible Light 22h 50m
Length of Day
18h 10m
Waxing Gibbous, 66% of the Moon is Illuminated
Aug 15
Waxing Gibbous
Aug 20
Full
Aug 28
Last Quarter
Sep 5
New
Sep 12
First Quarter

Hourly Weather History & Observations

Time (AKDT) Temp. Windchill Dew Point Humidity Pressure Visibility Wind Dir Wind Speed Gust Speed Precip Events Conditions
12:01 AM 45.0 °F 39.7 °F 44.1 °F 97% 29.96 in 6.0 mi East 10.4 mph - 0.01 in Rain Light Rain
12:47 AM 46.4 °F 41.5 °F 44.6 °F 93% 29.97 in 7.0 mi East 10.4 mph - 0.02 in Rain Light Rain
1:35 AM 46.4 °F 41.9 °F 44.6 °F 93% 29.98 in 7.0 mi East 9.2 mph - N/A Rain Light Rain
1:42 AM 46.4 °F 42.4 °F 44.6 °F 93% 29.98 in 7.0 mi East 8.1 mph - N/A Rain Light Rain
2:41 AM 44.6 °F 42.2 °F 44.6 °F 100% 29.99 in 6.0 mi North 4.6 mph - N/A Rain Light Rain
2:54 AM 44.6 °F 42.2 °F 42.8 °F 93% 29.99 in 6.0 mi NNE 4.6 mph - N/A Rain Light Rain
3:01 AM 44.1 °F 41.5 °F 43.0 °F 96% 29.99 in 6.0 mi NNE 4.6 mph - N/A Rain Light Rain
4:01 AM 46.4 °F 44.3 °F 44.6 °F 93% 30.00 in 6.0 mi East 4.6 mph - 0.03 in Rain Light Rain
5:01 AM 46.0 °F 41.4 °F 45.0 °F 96% 30.01 in 10.0 mi East 9.2 mph - 0.04 in Rain Light Rain
6:01 AM 46.0 °F 41.9 °F 44.1 °F 93% 30.01 in 7.0 mi East 8.1 mph - 0.02 in Rain Light Rain
7:01 AM 46.0 °F 41.0 °F 45.0 °F 96% 30.01 in 10.0 mi ESE 10.4 mph - 0.00 in   Overcast
7:12 AM 46.4 °F 41.1 °F 44.6 °F 93% 30.01 in 10.0 mi ESE 11.5 mph - N/A   Overcast
8:01 AM 44.6 °F 40.7 °F 44.6 °F 100% 30.02 in 8.0 mi ENE 6.9 mph - N/A   Overcast
8:58 AM 44.6 °F 39.2 °F 44.6 °F 100% 30.01 in 10.0 mi ENE 10.4 mph - N/A   Overcast
9:01 AM 44.6 °F 38.8 °F 44.6 °F 100% 30.01 in 10.0 mi ENE 11.5 mph - N/A   Overcast
10:01 AM 44.6 °F 38.4 °F 44.6 °F 100% 30.01 in 10.0 mi East 12.7 mph - N/A   Overcast
11:01 AM 46.4 °F 40.7 °F 44.6 °F 93% 30.01 in 10.0 mi East 12.7 mph - N/A   Overcast
12:01 PM 45.0 °F 38.5 °F 44.1 °F 97% 30.01 in 10.0 mi East 13.8 mph - N/A   Unknown
12:12 PM 44.6 °F 38.1 °F 44.6 °F 100% 30.02 in 10.0 mi East 13.8 mph - N/A   Overcast
1:01 PM 45.0 °F 37.6 °F 44.1 °F 97% 30.01 in 10.0 mi East 17.3 mph - N/A   Overcast
1:28 PM 44.6 °F 37.4 °F 44.6 °F 100% 30.01 in 9.0 mi East 16.1 mph - N/A   Overcast
2:01 PM 45.0 °F 38.2 °F 44.1 °F 97% 30.00 in 10.0 mi East 15.0 mph - N/A   Overcast
2:19 PM 44.6 °F 37.2 °F 42.8 °F 93% 30.00 in 10.0 mi East 17.3 mph - N/A   Overcast
3:01 PM 46.0 °F 39.3 °F 43.0 °F 89% 30.00 in 10.0 mi East 16.1 mph - N/A   Overcast
4:01 PM 45.0 °F 36.9 °F 43.0 °F 93% 29.99 in 10.0 mi East 20.7 mph - N/A   Overcast
5:01 PM 44.1 °F 36.2 °F 42.1 °F 93% 29.99 in 10.0 mi East 18.4 mph - N/A   Overcast
6:01 PM 45.0 °F 37.4 °F 42.1 °F 90% 29.98 in 10.0 mi East 18.4 mph - N/A   Overcast
7:01 PM 44.1 °F 36.5 °F 42.1 °F 93% 29.97 in 10.0 mi East 17.3 mph - N/A   Overcast
8:01 PM 44.1 °F 36.5 °F 41.0 °F 89% 29.96 in 10.0 mi East 17.3 mph - N/A   Overcast
10:01 PM 44.1 °F 36.5 °F 41.0 °F 89% 29.95 in 10.0 mi East 17.3 mph - N/A   Overcast
11:01 PM 45.0 °F 38.9 °F 43.0 °F 93% 29.94 in 9.0 mi East 12.7 mph - N/A   Overcast
11:54 PM 44.6 °F 37.4 °F 42.8 °F 93% 29.92 in 10.0 mi East 16.1 mph - N/A   Overcast